Location: Unspecified
(0.0000°N, 0.0000°E)
Time: 04:59:22
(UTC+00:00)

deb NOAA 5 - Pass Details

Date: 20 February 2026
Orbit: 749 x 1047 km, 102.9° (Epoch: 11 March)

Event Time Altitude Azimuth Distance (km) Brightness Sun altitude
Rises 05:02:34 0° 129° (SE) 3,439 ? -17.5°
Reaches altitude 10° 05:05:49 10° 108° (ESE) 2,559 ? -16.7°
Maximum altitude 05:09:13 16° 71° (ENE) 2,197 ? -15.8°
Drops below altitude 10° 05:12:44 10° 34° (NE) 2,676 ? -15.0°
Sets 05:16:13 0° 14° (NNE) 3,676 ? -14.1°
